Location: Heisler
(52.6701°N, 112.2239°W)
Time: 11:37:05
(UTC+00:00)

N. Korean satellite - Pass Details

Date: 02 December 2021
Orbit: 447 x 491 km, 97.3° (Epoch: 21 January)

Event Time Altitude Azimuth Distance (km) Brightness Sun altitude
Rises 12:02:17 0° 24° (NNE) 2,479 10.5 -28.8°
Reaches altitude 10° 12:04:41 10° 41° (NE) 1,594 9.6 -28.4°
Maximum altitude 12:07:21 21° 93° (E) 1,068 9.0 -28.0°
Drops below altitude 10° 12:09:59 10° 145° (SE) 1,575 9.6 -27.6°
Sets 12:12:21 0° 162° (SSE) 2,439 10.4 -27.3°
